Time,TemperatureF,DewpointF,PressureIn,WindDirection,WindDirectionDegrees,WindSpeedMPH,WindSpeedGustMPH,Humidity,HourlyPrecipIn,Conditions,Clouds,dailyrainin,SoftwareType,DateUTC
2013-09-11 00:03:00,71.0,67.3,30.12,ENE,78,0.0,1.0,88,0.00,,,0.00,Wunderground v.1.15,2013-09-11 05:03:00,
2013-09-11 00:09:00,70.8,67.1,30.12,East,100,0.0,2.0,88,0.00,,,0.00,Wunderground v.1.15,2013-09-11 05:09:00,
2013-09-11 00:14:00,70.7,67.0,30.13,ESE,103,1.0,1.0,88,0.00,,,0.00,Wunderground v.1.15,2013-09-11 05:14:00,
2013-09-11 00:20:00,70.5,67.1,30.12,East,84,3.0,3.0,89,0.00,,,0.00,Wunderground v.1.15,2013-09-11 05:20:00,
2013-09-11 00:25:00,70.4,67.0,30.12,SE,141,1.0,3.0,89,0.00,,,0.00,Wunderground v.1.15,2013-09-11 05:25:00,
2013-09-11 00:31:00,70.3,66.9,30.12,SW,232,0.0,1.0,89,0.00,,,0.00,Wunderground v.1.15,2013-09-11 05:31:00,
2013-09-11 00:37:00,70.2,66.8,30.12,South,182,0.0,3.0,89,0.00,,,0.00,Wunderground v.1.15,2013-09-11 05:37:00,
2013-09-11 00:42:00,70.1,66.7,30.12,SE,128,3.0,3.0,89,0.00,,,0.00,Wunderground v.1.15,2013-09-11 05:42:00,
2013-09-11 00:48:00,70.0,66.6,30.12,SE,146,3.0,3.0,89,0.00,,,0.00,Wunderground v.1.15,2013-09-11 05:48:00,
2013-09-11 00:53:00,69.9,66.5,30.12,ESE,117,0.0,2.0,89,0.00,,,0.00,Wunderground v.1.15,2013-09-11 05:53:00,
2013-09-11 00:59:00,69.9,66.5,30.12,ESE,119,1.0,2.0,89,0.00,,,0.00,Wunderground v.1.15,2013-09-11 05:59:00,
2013-09-11 01:04:00,69.9,66.5,30.12,ESE,113,3.0,4.0,89,0.00,,,0.00,Wunderground v.1.15,2013-09-11 06:04:00,
2013-09-11 01:10:00,69.9,66.5,30.11,ESE,112,5.0,5.0,89,0.00,,,0.00,Wunderground v.1.15,2013-09-11 06:10:00,
2013-09-11 01:15:00,69.8,66.4,30.11,ESE,121,3.0,5.0,89,0.00,,,0.00,Wunderground v.1.15,2013-09-11 06:15:00,
2013-09-11 01:21:00,69.8,66.4,30.11,SE,134,4.0,6.0,89,0.00,,,0.00,Wunderground v.1.15,2013-09-11 06:21:00,
2013-09-11 01:26:00,69.7,66.3,30.11,ESE,112,3.0,6.0,89,0.00,,,0.00,Wunderground v.1.15,2013-09-11 06:26:00,
2013-09-11 01:32:00,69.6,66.5,30.11,SSE,147,2.0,6.0,90,0.00,,,0.00,Wunderground v.1.15,2013-09-11 06:32:00,
2013-09-11 01:37:00,69.6,66.5,30.11,SE,129,4.0,7.0,90,0.00,,,0.00,Wunderground v.1.15,2013-09-11 06:37:00,
2013-09-11 01:43:00,69.6,66.5,30.10,SE,125,1.0,4.0,90,0.00,,,0.00,Wunderground v.1.15,2013-09-11 06:43:00,
2013-09-11 01:48:00,69.5,66.4,30.10,ESE,107,2.0,4.0,90,0.00,,,0.00,Wunderground v.1.15,2013-09-11 06:48:00,
2013-09-11 01:53:00,69.7,66.3,30.11,SE,139,5.0,5.0,89,0.00,,,0.00,Wunderground v.1.15,2013-09-11 06:53:00,
2013-09-11 01:59:00,69.7,66.3,30.11,SE,129,3.0,5.0,89,0.00,,,0.00,Wunderground v.1.15,2013-09-11 06:59:00,
2013-09-11 02:04:00,69.7,66.3,30.11,SE,131,3.0,5.0,89,0.00,,,0.00,Wunderground v.1.15,2013-09-11 07:04:00,
2013-09-11 02:09:00,69.7,66.3,30.11,SE,139,3.0,7.0,89,0.00,,,0.00,Wunderground v.1.15,2013-09-11 07:09:00,
2013-09-11 02:14:00,69.7,66.3,30.11,SE,144,6.0,6.0,89,0.00,,,0.00,Wunderground v.1.15,2013-09-11 07:14:00,
2013-09-11 02:19:00,69.8,66.4,30.11,SSE,167,3.0,6.0,89,0.00,,,0.00,Wunderground v.1.15,2013-09-11 07:19:00,
2013-09-11 02:24:00,69.8,66.1,30.10,ESE,123,4.0,5.0,88,0.00,,,0.00,Wunderground v.1.15,2013-09-11 07:24:00,
2013-09-11 02:29:00,69.9,66.2,30.11,SE,145,1.0,5.0,88,0.00,,,0.00,Wunderground v.1.15,2013-09-11 07:29:00,
2013-09-11 02:34:00,70.0,66.0,30.11,East,82,0.0,5.0,87,0.00,,,0.00,Wunderground v.1.15,2013-09-11 07:34:00,
2013-09-11 02:39:00,70.1,66.0,30.11,WSW,242,3.0,5.0,87,0.00,,,0.00,Wunderground v.1.15,2013-09-11 07:39:00,
2013-09-11 02:44:00,70.3,65.6,30.11,SSW,198,5.0,6.0,85,0.00,,,0.00,Wunderground v.1.15,2013-09-11 07:44:00,
2013-09-11 02:49:00,70.6,65.9,30.11,South,175,3.0,6.0,85,0.00,,,0.00,Wunderground v.1.15,2013-09-11 07:49:00,
2013-09-11 02:54:00,70.5,65.8,30.11,South,178,4.0,5.0,85,0.00,,,0.00,Wunderground v.1.15,2013-09-11 07:54:00,
2013-09-11 02:59:00,70.4,65.7,30.11,SE,130,2.0,5.0,85,0.00,,,0.00,Wunderground v.1.15,2013-09-11 07:59:00,
2013-09-11 03:04:00,70.3,65.6,30.11,SSE,150,0.0,5.0,85,0.00,,,0.00,Wunderground v.1.15,2013-09-11 08:04:00,
2013-09-11 03:09:00,70.1,65.7,30.11,SE,128,3.0,5.0,86,0.00,,,0.00,Wunderground v.1.15,2013-09-11 08:09:00,
2013-09-11 03:14:00,70.0,65.6,30.11,SE,124,2.0,7.0,86,0.00,,,0.00,Wunderground v.1.15,2013-09-11 08:14:00,
2013-09-11 03:22:00,69.8,65.4,30.11,SE,126,1.0,3.0,86,0.00,,,0.00,Wunderground v.1.15,2013-09-11 08:22:00,
2013-09-11 03:33:00,69.6,65.2,30.11,ESE,118,3.0,3.0,86,0.00,,,0.00,Wunderground v.1.15,2013-09-11 08:33:00,
2013-09-11 03:38:00,69.5,65.1,30.11,South,183,1.0,3.0,86,0.00,,,0.00,Wunderground v.1.15,2013-09-11 08:38:00,
2013-09-11 03:43:00,69.5,65.1,30.11,SE,144,3.0,4.0,86,0.00,,,0.00,Wunderground v.1.15,2013-09-11 08:43:00,
2013-09-11 03:48:00,69.6,65.2,30.11,ESE,115,2.0,6.0,86,0.00,,,0.00,Wunderground v.1.15,2013-09-11 08:48:00,
2013-09-11 03:53:00,69.7,65.3,30.11,SSW,204,2.0,3.0,86,0.00,,,0.00,Wunderground v.1.15,2013-09-11 08:53:00,
2013-09-11 03:58:00,69.9,65.2,30.11,South,187,2.0,4.0,85,0.00,,,0.00,Wunderground v.1.15,2013-09-11 08:58:00,
2013-09-11 04:03:00,70.1,64.7,30.11,SSW,200,1.0,4.0,83,0.00,,,0.00,Wunderground v.1.15,2013-09-11 09:03:00,
2013-09-11 04:08:00,70.4,65.0,30.11,SSW,206,0.0,4.0,83,0.00,,,0.00,Wunderground v.1.15,2013-09-11 09:08:00,
2013-09-11 04:13:00,70.6,65.2,30.12,SSW,202,2.0,3.0,83,0.00,,,0.00,Wunderground v.1.15,2013-09-11 09:13:00,
2013-09-11 04:19:00,70.6,65.2,30.11,SSE,151,3.0,4.0,83,0.00,,,0.00,Wunderground v.1.15,2013-09-11 09:19:00,
2013-09-11 04:24:00,70.5,65.1,30.11,SE,126,5.0,5.0,83,0.00,,,0.00,Wunderground v.1.15,2013-09-11 09:24:00,
2013-09-11 04:29:00,70.2,65.1,30.11,ESE,123,4.0,6.0,84,0.00,,,0.00,Wunderground v.1.15,2013-09-11 09:29:00,
2013-09-11 04:34:00,70.1,65.0,30.11,SE,127,4.0,5.0,84,0.00,,,0.00,Wunderground v.1.15,2013-09-11 09:34:00,
2013-09-11 04:39:00,69.7,65.0,30.11,SE,126,3.0,5.0,85,0.00,,,0.00,Wunderground v.1.15,2013-09-11 09:39:00,
2013-09-11 04:44:00,69.4,65.0,30.11,ESE,115,4.0,6.0,86,0.00,,,0.00,Wunderground v.1.15,2013-09-11 09:44:00,
2013-09-11 04:49:00,69.3,65.3,30.11,SE,142,5.0,7.0,87,0.00,,,0.00,Wunderground v.1.15,2013-09-11 09:49:00,
2013-09-11 04:54:00,69.3,65.3,30.11,SE,129,5.0,7.0,87,0.00,,,0.00,Wunderground v.1.15,2013-09-11 09:54:00,
2013-09-11 04:59:00,69.3,65.3,30.12,SE,130,4.0,7.0,87,0.00,,,0.00,Wunderground v.1.15,2013-09-11 09:59:00,
2013-09-11 05:04:00,69.3,65.3,30.12,SE,140,4.0,7.0,87,0.00,,,0.00,Wunderground v.1.15,2013-09-11 10:04:00,
2013-09-11 05:09:00,69.2,65.2,30.12,ESE,113,4.0,7.0,87,0.00,,,0.00,Wunderground v.1.15,2013-09-11 10:09:00,
2013-09-11 05:14:00,69.2,65.5,30.12,ESE,115,4.0,5.0,88,0.00,,,0.00,Wunderground v.1.15,2013-09-11 10:14:00,
2013-09-11 05:19:00,69.2,65.2,30.12,SE,136,4.0,6.0,87,0.00,,,0.00,Wunderground v.1.15,2013-09-11 10:19:00,
2013-09-11 05:24:00,69.2,65.2,30.12,ESE,121,5.0,6.0,87,0.00,,,0.00,Wunderground v.1.15,2013-09-11 10:24:00,
2013-09-11 05:29:00,69.1,65.4,30.12,ESE,123,3.0,6.0,88,0.00,,,0.00,Wunderground v.1.15,2013-09-11 10:29:00,
2013-09-11 05:34:00,69.0,65.3,30.12,ESE,113,3.0,5.0,88,0.00,,,0.00,Wunderground v.1.15,2013-09-11 10:34:00,
2013-09-11 05:39:00,69.0,65.0,30.12,ESE,103,5.0,5.0,87,0.00,,,0.00,Wunderground v.1.15,2013-09-11 10:39:00,
2013-09-11 05:44:00,69.1,65.1,30.13,SSE,148,2.0,7.0,87,0.00,,,0.00,Wunderground v.1.15,2013-09-11 10:44:00,
2013-09-11 05:49:00,69.1,65.1,30.13,SE,134,3.0,7.0,87,0.00,,,0.00,Wunderground v.1.15,2013-09-11 10:49:00,
2013-09-11 05:55:00,69.2,65.2,30.13,SE,124,2.0,5.0,87,0.00,,,0.00,Wunderground v.1.15,2013-09-11 10:55:00,
2013-09-11 06:00:00,69.2,64.8,30.13,SE,138,3.0,5.0,86,0.00,,,0.00,Wunderground v.1.15,2013-09-11 11:00:00,
2013-09-11 06:05:00,69.3,64.9,30.13,South,181,0.0,4.0,86,0.00,,,0.00,Wunderground v.1.15,2013-09-11 11:05:00,
2013-09-11 06:10:00,69.5,64.5,30.13,SSW,196,3.0,3.0,84,0.00,,,0.00,Wunderground v.1.15,2013-09-11 11:10:00,
2013-09-11 06:15:00,70.0,64.6,30.14,South,186,1.0,6.0,83,0.00,,,0.00,Wunderground v.1.15,2013-09-11 11:15:00,
2013-09-11 06:20:00,70.3,64.5,30.14,SSW,205,3.0,3.0,82,0.00,,,0.00,Wunderground v.1.15,2013-09-11 11:20:00,
2013-09-11 06:25:00,70.4,64.3,30.14,SSW,200,2.0,6.0,81,0.00,,,0.00,Wunderground v.1.15,2013-09-11 11:25:00,
2013-09-11 06:30:00,70.3,64.2,30.14,SSE,152,2.0,2.0,81,0.00,,,0.00,Wunderground v.1.15,2013-09-11 11:30:00,
2013-09-11 06:35:00,70.1,64.0,30.14,SSE,156,1.0,5.0,81,0.00,,,0.00,Wunderground v.1.15,2013-09-11 11:35:00,
2013-09-11 06:40:00,70.0,64.2,30.14,SSE,153,0.0,2.0,82,0.00,,,0.00,Wunderground v.1.15,2013-09-11 11:40:00,
2013-09-11 06:45:00,70.1,63.6,30.15,WSW,248,1.0,5.0,80,0.00,,,0.00,Wunderground v.1.15,2013-09-11 11:45:00,
2013-09-11 06:50:00,70.4,63.9,30.15,SW,221,1.0,2.0,80,0.00,,,0.00,Wunderground v.1.15,2013-09-11 11:50:00,
2013-09-11 06:55:00,70.6,64.5,30.14,SSW,206,3.0,6.0,81,0.00,,,0.00,Wunderground v.1.15,2013-09-11 11:55:00,
2013-09-11 07:00:00,70.8,64.3,30.15,SW,221,1.0,4.0,80,0.00,,,0.00,Wunderground v.1.15,2013-09-11 12:00:00,
2013-09-11 07:05:00,71.1,64.6,30.15,SW,229,1.0,6.0,80,0.00,,,0.00,Wunderground v.1.15,2013-09-11 12:05:00,
2013-09-11 07:10:00,71.1,64.6,30.15,SW,225,3.0,5.0,80,0.00,,,0.00,Wunderground v.1.15,2013-09-11 12:10:00,
2013-09-11 07:15:00,71.2,64.7,30.15,SW,222,4.0,5.0,80,0.00,,,0.00,Wunderground v.1.15,2013-09-11 12:15:00,
2013-09-11 07:20:00,71.3,64.8,30.15,SW,228,2.0,3.0,80,0.00,,,0.00,Wunderground v.1.15,2013-09-11 12:20:00,
2013-09-11 07:25:00,71.3,64.8,30.15,SW,223,3.0,4.0,80,0.00,,,0.00,Wunderground v.1.15,2013-09-11 12:25:00,
2013-09-11 07:30:00,71.4,64.9,30.15,SW,219,3.0,4.0,80,0.00,,,0.00,Wunderground v.1.15,2013-09-11 12:30:00,
2013-09-11 07:35:00,71.5,65.4,30.15,WSW,242,3.0,5.0,81,0.00,,,0.00,Wunderground v.1.15,2013-09-11 12:35:00,
2013-09-11 07:40:00,71.4,64.9,30.15,SSW,197,2.0,5.0,80,0.00,,,0.00,Wunderground v.1.15,2013-09-11 12:40:00,
2013-09-11 07:45:00,71.5,65.0,30.15,SW,215,3.0,5.0,80,0.00,,,0.00,Wunderground v.1.15,2013-09-11 12:45:00,
2013-09-11 07:51:00,71.6,65.1,30.15,SSW,212,3.0,4.0,80,0.00,,,0.00,Wunderground v.1.15,2013-09-11 12:51:00,
2013-09-11 07:55:00,71.6,65.1,30.15,SW,217,3.0,5.0,80,0.00,,,0.00,Wunderground v.1.15,2013-09-11 12:55:00,
2013-09-11 08:00:00,71.7,64.8,30.15,SSE,150,1.0,2.0,79,0.00,,,0.00,Wunderground v.1.15,2013-09-11 13:00:00,
2013-09-11 08:06:00,71.8,64.9,30.15,SSW,199,1.0,6.0,79,0.00,,,0.00,Wunderground v.1.15,2013-09-11 13:06:00,
2013-09-11 08:11:00,72.0,65.1,30.16,SSW,205,2.0,2.0,79,0.00,,,0.00,Wunderground v.1.15,2013-09-11 13:11:00,
2013-09-11 08:16:00,72.1,65.2,30.15,SSE,159,4.0,5.0,79,0.00,,,0.00,Wunderground v.1.15,2013-09-11 13:16:00,
2013-09-11 08:21:00,72.3,65.4,30.15,SW,222,2.0,5.0,79,0.00,,,0.00,Wunderground v.1.15,2013-09-11 13:21:00,
2013-09-11 08:26:00,72.4,65.2,30.15,SSW,198,1.0,5.0,78,0.00,,,0.00,Wunderground v.1.15,2013-09-11 13:26:00,
2013-09-11 08:31:00,72.6,65.3,30.15,SW,227,0.0,4.0,78,0.00,,,0.00,Wunderground v.1.15,2013-09-11 13:31:00,
2013-09-11 08:36:00,72.7,65.1,30.15,SW,218,1.0,6.0,77,0.00,,,0.00,Wunderground v.1.15,2013-09-11 13:36:00,
2013-09-11 08:41:00,72.8,65.2,30.15,WSW,237,1.0,3.0,77,0.00,,,0.00,Wunderground v.1.15,2013-09-11 13:41:00,
2013-09-11 08:46:00,72.8,65.2,30.15,SW,236,2.0,4.0,77,0.00,,,0.00,Wunderground v.1.15,2013-09-11 13:46:00,
2013-09-11 08:51:00,72.9,65.3,30.15,SW,215,3.0,3.0,77,0.00,,,0.00,Wunderground v.1.15,2013-09-11 13:51:00,
2013-09-11 08:56:00,72.9,65.3,30.15,SW,233,2.0,4.0,77,0.00,,,0.00,Wunderground v.1.15,2013-09-11 13:56:00,
2013-09-11 09:01:00,72.9,65.3,30.15,SW,222,0.0,5.0,77,0.00,,,0.00,Wunderground v.1.15,2013-09-11 14:01:00,
2013-09-11 09:06:00,72.8,65.2,30.15,SW,225,4.0,5.0,77,0.00,,,0.00,Wunderground v.1.15,2013-09-11 14:06:00,
2013-09-11 09:11:00,72.7,65.1,30.15,SW,229,2.0,6.0,77,0.00,,,0.00,Wunderground v.1.15,2013-09-11 14:11:00,
2013-09-11 09:16:00,72.7,65.4,30.15,SW,225,1.0,6.0,78,0.00,,,0.00,Wunderground v.1.15,2013-09-11 14:16:00,
2013-09-11 09:21:00,72.9,64.9,30.15,SSW,194,1.0,7.0,76,0.00,,,0.00,Wunderground v.1.15,2013-09-11 14:21:00,
2013-09-11 09:26:00,73.1,65.1,30.15,SW,226,2.0,7.0,76,0.00,,,0.00,Wunderground v.1.15,2013-09-11 14:26:00,
2013-09-11 09:31:00,73.1,65.1,30.15,SW,223,3.0,6.0,76,0.00,,,0.00,Wunderground v.1.15,2013-09-11 14:31:00,
2013-09-11 09:36:00,73.0,65.0,30.16,SW,219,3.0,6.0,76,0.00,,,0.00,Wunderground v.1.15,2013-09-11 14:36:00,
2013-09-11 09:41:00,73.0,65.4,30.16,WSW,243,3.0,6.0,77,0.00,,,0.00,Wunderground v.1.15,2013-09-11 14:41:00,
2013-09-11 09:46:00,73.0,65.4,30.15,SW,234,1.0,6.0,77,0.00,,,0.00,Wunderground v.1.15,2013-09-11 14:46:00,
2013-09-11 09:51:00,73.1,65.5,30.16,WSW,246,3.0,5.0,77,0.00,,,0.00,Wunderground v.1.15,2013-09-11 14:51:00,
2013-09-11 09:56:00,73.3,64.9,30.16,SW,235,2.0,6.0,75,0.00,,,0.00,Wunderground v.1.15,2013-09-11 14:56:00,
2013-09-11 10:01:00,73.6,65.2,30.16,SW,225,0.0,4.0,75,0.00,,,0.00,Wunderground v.1.15,2013-09-11 15:01:00,
2013-09-11 10:06:00,73.7,65.3,30.16,SW,228,3.0,7.0,75,0.00,,,0.00,Wunderground v.1.15,2013-09-11 15:06:00,
2013-09-11 10:11:00,73.8,65.0,30.16,SSW,199,4.0,4.0,74,0.00,,,0.00,Wunderground v.1.15,2013-09-11 15:11:00,
2013-09-11 10:16:00,73.9,65.5,30.16,WSW,251,2.0,7.0,75,0.00,,,0.00,Wunderground v.1.15,2013-09-11 15:16:00,
2013-09-11 10:21:00,73.9,65.9,30.16,SW,235,3.0,6.0,76,0.00,,,0.00,Wunderground v.1.15,2013-09-11 15:21:00,
2013-09-11 10:26:00,73.9,65.9,30.15,SW,230,3.0,7.0,76,0.00,,,0.00,Wunderground v.1.15,2013-09-11 15:26:00,
2013-09-11 10:31:00,73.9,65.9,30.15,SW,233,4.0,5.0,76,0.00,,,0.00,Wunderground v.1.15,2013-09-11 15:31:00,
2013-09-11 10:36:00,74.0,67.1,30.15,WSW,246,6.0,6.0,79,0.00,,,0.00,Wunderground v.1.15,2013-09-11 15:36:00,
2013-09-11 10:41:00,73.9,66.6,30.15,WSW,245,3.0,7.0,78,0.00,,,0.00,Wunderground v.1.15,2013-09-11 15:41:00,
2013-09-11 10:46:00,73.7,66.4,30.15,West,271,5.0,7.0,78,0.00,,,0.00,Wunderground v.1.15,2013-09-11 15:46:00,
2013-09-11 10:51:00,73.7,66.8,30.15,SW,226,4.0,7.0,79,0.00,,,0.00,Wunderground v.1.15,2013-09-11 15:51:00,
2013-09-11 10:57:00,73.7,67.1,30.15,WSW,240,4.0,7.0,80,0.00,,,0.00,Wunderground v.1.15,2013-09-11 15:57:00,
2013-09-11 11:02:00,73.8,66.9,30.15,SW,234,4.0,5.0,79,0.00,,,0.00,Wunderground v.1.15,2013-09-11 16:02:00,
2013-09-11 11:07:00,73.9,67.0,30.15,WSW,248,5.0,6.0,79,0.00,,,0.00,Wunderground v.1.15,2013-09-11 16:07:00,
2013-09-11 11:12:00,74.1,67.2,30.15,SW,232,4.0,7.0,79,0.00,,,0.00,Wunderground v.1.15,2013-09-11 16:12:00,
2013-09-11 11:17:00,74.2,67.3,30.15,WSW,255,5.0,7.0,79,0.00,,,0.00,Wunderground v.1.15,2013-09-11 16:17:00,
2013-09-11 11:22:00,74.2,66.9,30.15,SW,228,5.0,5.0,78,0.00,,,0.00,Wunderground v.1.15,2013-09-11 16:22:00,
2013-09-11 11:27:00,74.2,66.9,30.14,SW,230,3.0,7.0,78,0.00,,,0.00,Wunderground v.1.15,2013-09-11 16:27:00,
2013-09-11 11:32:00,74.4,66.0,30.14,SW,226,1.0,5.0,75,0.00,,,0.00,Wunderground v.1.15,2013-09-11 16:32:00,
2013-09-11 11:37:00,74.8,66.3,30.14,SW,232,2.0,6.0,75,0.00,,,0.00,Wunderground v.1.15,2013-09-11 16:37:00,
2013-09-11 11:42:00,74.9,64.9,30.14,WSW,243,2.0,4.0,71,0.00,,,0.00,Wunderground v.1.15,2013-09-11 16:42:00,
2013-09-11 11:47:00,75.2,64.7,30.14,SW,236,3.0,6.0,70,0.00,,,0.00,Wunderground v.1.15,2013-09-11 16:47:00,
2013-09-11 11:52:00,75.5,63.3,30.14,WSW,257,3.0,6.0,66,0.00,,,0.00,Wunderground v.1.15,2013-09-11 16:52:00,
2013-09-11 11:57:00,75.9,64.6,30.14,West,265,3.0,6.0,68,0.00,,,0.00,Wunderground v.1.15,2013-09-11 16:57:00,
2013-09-11 12:02:00,76.2,64.9,30.14,WNW,290,3.0,6.0,68,0.00,,,0.00,Wunderground v.1.15,2013-09-11 17:02:00,
2013-09-11 12:07:00,76.6,64.4,30.14,NW,321,2.0,6.0,66,0.00,,,0.00,Wunderground v.1.15,2013-09-11 17:07:00,
2013-09-11 12:12:00,76.7,65.3,30.14,West,272,1.0,3.0,68,0.00,,,0.00,Wunderground v.1.15,2013-09-11 17:12:00,
2013-09-11 12:17:00,76.9,65.5,30.14,WSW,244,0.0,6.0,68,0.00,,,0.00,Wunderground v.1.15,2013-09-11 17:17:00,
2013-09-11 12:22:00,77.1,66.6,30.13,WNW,288,3.0,4.0,70,0.00,,,0.00,Wunderground v.1.15,2013-09-11 17:22:00,
2013-09-11 12:27:00,77.3,64.6,30.13,WSW,251,0.0,4.0,65,0.00,,,0.00,Wunderground v.1.15,2013-09-11 17:27:00,
2013-09-11 12:32:00,77.2,65.4,30.13,West,275,1.0,5.0,67,0.00,,,0.00,Wunderground v.1.15,2013-09-11 17:32:00,
2013-09-11 12:37:00,77.1,65.3,30.13,WSW,252,1.0,5.0,67,0.00,,,0.00,Wunderground v.1.15,2013-09-11 17:37:00,
2013-09-11 12:42:00,77.1,64.0,30.13,WSW,252,2.0,2.0,64,0.00,,,0.00,Wunderground v.1.15,2013-09-11 17:42:00,
2013-09-11 12:47:00,77.3,62.8,30.12,WSW,251,1.0,5.0,61,0.00,,,0.00,Wunderground v.1.15,2013-09-11 17:47:00,
2013-09-11 12:52:00,77.5,63.9,30.12,NW,306,2.0,4.0,63,0.00,,,0.00,Wunderground v.1.15,2013-09-11 17:52:00,
2013-09-11 12:57:00,78.0,65.3,30.12,NW,315,5.0,7.0,65,0.00,,,0.00,Wunderground v.1.15,2013-09-11 17:57:00,
2013-09-11 13:02:00,77.8,66.4,30.12,WSW,254,0.0,4.0,68,0.00,,,0.00,Wunderground v.1.15,2013-09-11 18:02:00,
2013-09-11 13:07:00,77.8,66.8,30.11,SW,226,4.0,5.0,69,0.00,,,0.00,Wunderground v.1.15,2013-09-11 18:07:00,
2013-09-11 13:12:00,77.9,67.3,30.11,WSW,250,5.0,5.0,70,0.00,,,0.00,Wunderground v.1.15,2013-09-11 18:12:00,
2013-09-11 13:17:00,78.2,67.6,30.11,WNW,298,1.0,5.0,70,0.00,,,0.00,Wunderground v.1.15,2013-09-11 18:17:00,
2013-09-11 13:22:00,77.7,66.7,30.11,WSW,253,3.0,6.0,69,0.00,,,0.00,Wunderground v.1.15,2013-09-11 18:22:00,
2013-09-11 13:27:00,77.9,67.7,30.10,NW,304,4.0,6.0,71,0.00,,,0.00,Wunderground v.1.15,2013-09-11 18:27:00,
2013-09-11 13:32:00,78.3,67.3,30.10,WSW,248,1.0,4.0,69,0.00,,,0.00,Wunderground v.1.15,2013-09-11 18:32:00,
2013-09-11 13:37:00,78.9,67.9,30.10,West,273,4.0,5.0,69,0.00,,,0.00,Wunderground v.1.15,2013-09-11 18:37:00,
2013-09-11 13:42:00,78.6,67.6,30.09,West,277,0.0,3.0,69,0.00,,,0.00,Wunderground v.1.15,2013-09-11 18:42:00,
2013-09-11 13:47:00,78.5,67.5,30.09,West,271,0.0,4.0,69,0.00,,,0.00,Wunderground v.1.15,2013-09-11 18:47:00,
2013-09-11 13:52:00,79.1,68.5,30.09,ESE,102,0.0,1.0,70,0.00,,,0.00,Wunderground v.1.15,2013-09-11 18:52:00,
2013-09-11 13:58:00,80.0,68.1,30.09,SE,144,0.0,2.0,67,0.00,,,0.00,Wunderground v.1.15,2013-09-11 18:58:00,
2013-09-11 14:03:00,80.2,67.8,30.09,SE,144,0.0,1.0,66,0.00,,,0.00,Wunderground v.1.15,2013-09-11 19:03:00,
2013-09-11 14:08:00,79.7,68.6,30.08,ESE,116,0.0,2.0,69,0.00,,,0.00,Wunderground v.1.15,2013-09-11 19:08:00,
2013-09-11 14:13:00,79.6,69.4,30.08,ESE,117,0.0,2.0,71,0.00,,,0.00,Wunderground v.1.15,2013-09-11 19:13:00,
2013-09-11 14:18:00,80.1,69.8,30.08,SE,142,0.0,2.0,71,0.00,,,0.00,Wunderground v.1.15,2013-09-11 19:18:00,
2013-09-11 14:23:00,80.6,69.9,30.08,ENE,72,0.0,2.0,70,0.00,,,0.00,Wunderground v.1.15,2013-09-11 19:23:00,
2013-09-11 14:28:00,80.7,69.2,30.08,SE,132,0.0,2.0,68,0.00,,,0.00,Wunderground v.1.15,2013-09-11 19:28:00,
2013-09-11 14:33:00,80.9,70.2,30.08,North,5,0.0,1.0,70,0.00,,,0.00,Wunderground v.1.15,2013-09-11 19:33:00,
2013-09-11 14:38:00,81.0,69.4,30.07,SE,134,0.0,2.0,68,0.00,,,0.00,Wunderground v.1.15,2013-09-11 19:38:00,
2013-09-11 14:43:00,81.1,68.7,30.07,NNW,343,2.0,2.0,66,0.00,,,0.00,Wunderground v.1.15,2013-09-11 19:43:00,
2013-09-11 14:48:00,81.2,70.9,30.07,SSW,192,0.0,2.0,71,0.00,,,0.00,Wunderground v.1.15,2013-09-11 19:48:00,
2013-09-11 14:53:00,81.4,68.9,30.07,SSW,210,2.0,3.0,66,0.00,,,0.00,Wunderground v.1.15,2013-09-11 19:53:00,
2013-09-11 14:58:00,81.6,67.8,30.07,SE,124,1.0,3.0,63,0.00,,,0.00,Wunderground v.1.15,2013-09-11 19:58:00,
2013-09-11 15:03:00,82.1,70.1,30.06,SE,140,0.0,2.0,67,0.00,,,0.00,Wunderground v.1.15,2013-09-11 20:03:00,
2013-09-11 15:08:00,82.4,68.5,30.06,SSE,153,1.0,4.0,63,0.00,,,0.00,Wunderground v.1.15,2013-09-11 20:08:00,
2013-09-11 15:13:00,82.2,69.3,30.06,NNW,328,0.0,3.0,65,0.00,,,0.00,Wunderground v.1.15,2013-09-11 20:13:00,
2013-09-11 15:18:00,82.4,69.0,30.06,SW,224,0.0,3.0,64,0.00,,,0.00,Wunderground v.1.15,2013-09-11 20:18:00,
2013-09-11 15:23:00,82.7,68.8,30.06,WSW,250,0.0,1.0,63,0.00,,,0.00,Wunderground v.1.15,2013-09-11 20:23:00,
2013-09-11 15:28:00,82.8,68.9,30.06,SSW,192,0.0,2.0,63,0.00,,,0.00,Wunderground v.1.15,2013-09-11 20:28:00,
2013-09-11 15:33:00,82.7,69.7,30.06,SSW,193,0.0,1.0,65,0.00,,,0.00,Wunderground v.1.15,2013-09-11 20:33:00,
2013-09-11 15:38:00,82.6,69.2,30.05,NW,317,2.0,4.0,64,0.00,,,0.00,Wunderground v.1.15,2013-09-11 20:38:00,
2013-09-11 15:43:00,82.2,69.3,30.06,NW,318,2.0,5.0,65,0.00,,,0.00,Wunderground v.1.15,2013-09-11 20:43:00,
2013-09-11 15:48:00,81.4,68.9,30.05,NW,311,3.0,5.0,66,0.00,,,0.00,Wunderground v.1.15,2013-09-11 20:48:00,
2013-09-11 15:53:00,80.8,67.9,30.05,WNW,293,5.0,6.0,65,0.00,,,0.00,Wunderground v.1.15,2013-09-11 20:53:00,
2013-09-11 15:58:00,80.0,67.6,30.05,WSW,241,5.0,6.0,66,0.00,,,0.00,Wunderground v.1.15,2013-09-11 20:58:00,
2013-09-11 16:03:00,80.0,68.5,30.05,West,275,3.0,5.0,68,0.00,,,0.00,Wunderground v.1.15,2013-09-11 21:03:00,
2013-09-11 16:09:00,80.0,67.6,30.05,WNW,286,4.0,6.0,66,0.00,,,0.00,Wunderground v.1.15,2013-09-11 21:09:00,
2013-09-11 16:14:00,79.9,68.0,30.06,WNW,296,4.0,5.0,67,0.00,,,0.00,Wunderground v.1.15,2013-09-11 21:14:00,
2013-09-11 16:19:00,79.6,68.5,30.05,West,275,4.0,5.0,69,0.00,,,0.00,Wunderground v.1.15,2013-09-11 21:19:00,
2013-09-11 16:24:00,79.5,68.0,30.06,WNW,283,3.0,6.0,68,0.00,,,0.00,Wunderground v.1.15,2013-09-11 21:24:00,
2013-09-11 16:29:00,79.7,68.2,30.05,NW,305,1.0,6.0,68,0.00,,,0.00,Wunderground v.1.15,2013-09-11 21:29:00,
2013-09-11 16:34:00,79.8,67.9,30.05,WSW,245,4.0,6.0,67,0.00,,,0.00,Wunderground v.1.15,2013-09-11 21:34:00,
2013-09-11 16:39:00,79.1,67.2,30.05,WSW,242,5.0,6.0,67,0.00,,,0.00,Wunderground v.1.15,2013-09-11 21:39:00,
2013-09-11 16:44:00,79.0,67.5,30.05,WNW,289,3.0,5.0,68,0.00,,,0.00,Wunderground v.1.15,2013-09-11 21:44:00,
2013-09-11 16:49:00,79.3,67.4,30.05,WSW,252,5.0,5.0,67,0.00,,,0.00,Wunderground v.1.15,2013-09-11 21:49:00,
2013-09-11 16:54:00,79.5,68.0,30.06,WSW,251,1.0,4.0,68,0.00,,,0.00,Wunderground v.1.15,2013-09-11 21:54:00,
2013-09-11 16:59:00,79.6,68.1,30.05,SW,233,1.0,5.0,68,0.00,,,0.00,Wunderground v.1.15,2013-09-11 21:59:00,
2013-09-11 17:04:00,79.2,68.1,30.06,WSW,249,0.0,4.0,69,0.00,,,0.00,Wunderground v.1.15,2013-09-11 22:04:00,
2013-09-11 17:09:00,78.7,67.7,30.06,WSW,242,4.0,5.0,69,0.00,,,0.00,Wunderground v.1.15,2013-09-11 22:09:00,
2013-09-11 17:14:00,78.7,67.2,30.06,WSW,242,6.0,6.0,68,0.00,,,0.00,Wunderground v.1.15,2013-09-11 22:14:00,
2013-09-11 17:20:00,78.8,67.3,30.06,West,259,4.0,6.0,68,0.00,,,0.00,Wunderground v.1.15,2013-09-11 22:20:00,
2013-09-11 17:25:00,78.8,68.2,30.06,NW,306,1.0,4.0,70,0.00,,,0.00,Wunderground v.1.15,2013-09-11 22:25:00,
2013-09-11 17:30:00,78.9,68.7,30.06,West,273,0.0,2.0,71,0.00,,,0.00,Wunderground v.1.15,2013-09-11 22:30:00,
2013-09-11 17:35:00,79.0,69.6,30.05,West,273,0.0,2.0,73,0.00,,,0.00,Wunderground v.1.15,2013-09-11 22:35:00,
2013-09-11 17:40:00,78.8,69.0,30.05,West,273,0.0,0.0,72,0.00,,,0.00,Wunderground v.1.15,2013-09-11 22:40:00,
2013-09-11 17:45:00,78.2,67.2,30.06,West,267,2.0,4.0,69,0.00,,,0.00,Wunderground v.1.15,2013-09-11 22:45:00,
2013-09-11 17:50:00,77.8,67.6,30.06,West,267,0.0,2.0,71,0.00,,,0.00,Wunderground v.1.15,2013-09-11 22:50:00,
2013-09-11 17:55:00,77.6,68.7,30.05,SSE,155,2.0,2.0,74,0.00,,,0.00,Wunderground v.1.15,2013-09-11 22:55:00,
2013-09-11 18:00:00,77.5,66.9,30.05,SSE,155,0.0,0.0,70,0.00,,,0.00,Wunderground v.1.15,2013-09-11 23:00:00,
2013-09-11 18:05:00,77.3,66.3,30.05,South,180,0.0,3.0,69,0.00,,,0.00,Wunderground v.1.15,2013-09-11 23:05:00,
2013-09-11 18:10:00,77.2,66.2,30.05,South,183,1.0,1.0,69,0.00,,,0.00,Wunderground v.1.15,2013-09-11 23:10:00,
2013-09-11 18:15:00,77.1,66.1,30.06,SSW,199,2.0,3.0,69,0.00,,,0.00,Wunderground v.1.15,2013-09-11 23:15:00,
2013-09-11 18:20:00,77.1,65.7,30.06,SW,223,4.0,4.0,68,0.00,,,0.00,Wunderground v.1.15,2013-09-11 23:20:00,
2013-09-11 18:25:00,76.9,66.4,30.06,WNW,296,2.0,5.0,70,0.00,,,0.00,Wunderground v.1.15,2013-09-11 23:25:00,
2013-09-11 18:30:00,76.8,67.9,30.05,NNW,338,0.0,3.0,74,0.00,,,0.00,Wunderground v.1.15,2013-09-11 23:30:00,
2013-09-11 18:35:00,76.6,68.1,30.05,NNW,338,0.0,3.0,75,0.00,,,0.00,Wunderground v.1.15,2013-09-11 23:35:00,
2013-09-11 18:40:00,76.4,67.9,30.05,NNW,338,0.0,0.0,75,0.00,,,0.00,Wunderground v.1.15,2013-09-11 23:40:00,
2013-09-11 18:45:00,76.1,67.6,30.06,NNW,338,3.0,4.0,75,0.00,,,0.00,Wunderground v.1.15,2013-09-11 23:45:00,
2013-09-11 18:50:00,75.8,67.7,30.06,North,351,3.0,5.0,76,0.00,,,0.00,Wunderground v.1.15,2013-09-11 23:50:00,
2013-09-11 18:55:00,75.4,67.7,30.06,North,351,5.0,5.0,77,0.00,,,0.00,Wunderground v.1.15,2013-09-11 23:55:00,
2013-09-11 19:00:00,75.0,67.3,30.05,NW,314,3.0,3.0,77,0.00,,,0.00,Wunderground v.1.15,2013-09-12 00:00:00,
2013-09-11 19:05:00,74.9,67.2,30.06,NW,313,2.0,5.0,77,0.00,,,0.00,Wunderground v.1.15,2013-09-12 00:05:00,
2013-09-11 19:10:00,74.9,67.2,30.06,NW,316,3.0,4.0,77,0.00,,,0.00,Wunderground v.1.15,2013-09-12 00:10:00,
2013-09-11 19:15:00,74.9,67.2,30.06,NW,315,3.0,4.0,77,0.00,,,0.00,Wunderground v.1.15,2013-09-12 00:15:00,
2013-09-11 19:20:00,75.0,67.3,30.05,NW,307,5.0,6.0,77,0.00,,,0.00,Wunderground v.1.15,2013-09-12 00:20:00,
2013-09-11 19:25:00,75.0,67.7,30.05,West,281,2.0,6.0,78,0.00,,,0.00,Wunderground v.1.15,2013-09-12 00:25:00,
2013-09-11 19:30:00,74.7,67.8,30.05,West,281,1.0,2.0,79,0.00,,,0.00,Wunderground v.1.15,2013-09-12 00:30:00,
2013-09-11 19:35:00,74.6,67.7,30.05,WNW,283,0.0,3.0,79,0.00,,,0.00,Wunderground v.1.15,2013-09-12 00:35:00,
2013-09-11 19:40:00,74.3,67.4,30.05,WNW,283,0.0,1.0,79,0.00,,,0.00,Wunderground v.1.15,2013-09-12 00:40:00,
2013-09-11 19:45:00,74.2,68.0,30.05,NW,307,0.0,4.0,81,0.00,,,0.00,Wunderground v.1.15,2013-09-12 00:45:00,
2013-09-11 19:50:00,74.0,67.8,30.05,NW,325,3.0,4.0,81,0.00,,,0.00,Wunderground v.1.15,2013-09-12 00:50:00,
2013-09-11 19:55:00,74.1,67.9,30.05,North,350,3.0,4.0,81,0.00,,,0.00,Wunderground v.1.15,2013-09-12 00:55:00,
2013-09-11 20:01:00,74.0,67.8,30.05,NNW,342,2.0,3.0,81,0.00,,,0.00,Wunderground v.1.15,2013-09-12 01:01:00,
2013-09-11 20:06:00,73.8,67.6,30.05,NNW,342,2.0,4.0,81,0.00,,,0.00,Wunderground v.1.15,2013-09-12 01:06:00,
2013-09-11 20:10:00,73.7,67.5,30.05,NNW,342,1.0,2.0,81,0.00,,,0.00,Wunderground v.1.15,2013-09-12 01:10:00,
2013-09-11 20:15:00,73.6,67.0,30.06,NNW,342,1.0,4.0,80,0.00,,,0.00,Wunderground v.1.15,2013-09-12 01:15:00,
2013-09-11 20:21:00,73.6,66.7,30.05,NNW,342,1.0,3.0,79,0.00,,,0.00,Wunderground v.1.15,2013-09-12 01:21:00,
2013-09-11 20:26:00,73.7,66.0,30.05,NNW,342,0.0,3.0,77,0.00,,,0.00,Wunderground v.1.15,2013-09-12 01:26:00,
2013-09-11 20:31:00,74.1,65.7,30.06,NNW,342,1.0,1.0,75,0.00,,,0.00,Wunderground v.1.15,2013-09-12 01:31:00,
2013-09-11 20:36:00,74.5,66.1,30.06,NNW,342,2.0,3.0,75,0.00,,,0.00,Wunderground v.1.15,2013-09-12 01:36:00,
2013-09-11 20:41:00,74.8,66.0,30.06,NNW,342,2.0,4.0,74,0.00,,,0.00,Wunderground v.1.15,2013-09-12 01:41:00,
2013-09-11 20:46:00,74.9,66.1,30.06,NW,316,4.0,4.0,74,0.00,,,0.00,Wunderground v.1.15,2013-09-12 01:46:00,
2013-09-11 20:51:00,74.7,65.9,30.06,NW,317,2.0,3.0,74,0.00,,,0.00,Wunderground v.1.15,2013-09-12 01:51:00,
2013-09-11 20:56:00,74.6,66.1,30.06,NW,319,3.0,4.0,75,0.00,,,0.00,Wunderground v.1.15,2013-09-12 01:56:00,
2013-09-11 21:01:00,74.4,66.0,30.07,NNW,333,6.0,6.0,75,0.00,,,0.00,Wunderground v.1.15,2013-09-12 02:01:00,
2013-09-11 21:06:00,74.2,66.5,30.07,NW,318,2.0,6.0,77,0.00,,,0.00,Wunderground v.1.15,2013-09-12 02:06:00,
2013-09-11 21:11:00,73.9,66.2,30.07,NNW,338,6.0,6.0,77,0.00,,,0.00,Wunderground v.1.15,2013-09-12 02:11:00,
2013-09-11 21:16:00,73.7,66.4,30.07,NW,326,6.0,7.0,78,0.00,,,0.00,Wunderground v.1.15,2013-09-12 02:16:00,
2013-09-11 21:21:00,73.5,66.9,30.07,NNW,344,4.0,5.0,80,0.00,,,0.00,Wunderground v.1.15,2013-09-12 02:21:00,
2013-09-11 21:26:00,73.4,66.1,30.06,NNW,344,0.0,5.0,78,0.00,,,0.00,Wunderground v.1.15,2013-09-12 02:26:00,
2013-09-11 21:31:00,73.4,66.1,30.06,NNW,344,4.0,4.0,78,0.00,,,0.00,Wunderground v.1.15,2013-09-12 02:31:00,
2013-09-11 21:36:00,73.8,66.5,30.06,NW,326,4.0,6.0,78,0.00,,,0.00,Wunderground v.1.15,2013-09-12 02:36:00,
2013-09-11 21:41:00,74.0,66.3,30.07,NNW,332,3.0,5.0,77,0.00,,,0.00,Wunderground v.1.15,2013-09-12 02:41:00,
2013-09-11 21:46:00,73.9,65.9,30.06,NNW,345,2.0,5.0,76,0.00,,,0.00,Wunderground v.1.15,2013-09-12 02:46:00,
2013-09-11 21:51:00,74.0,66.0,30.06,NNW,348,3.0,4.0,76,0.00,,,0.00,Wunderground v.1.15,2013-09-12 02:51:00,
2013-09-11 21:56:00,74.1,66.4,30.06,NNW,346,3.0,4.0,77,0.00,,,0.00,Wunderground v.1.15,2013-09-12 02:56:00,
2013-09-11 22:01:00,74.0,66.3,30.06,NNW,333,3.0,5.0,77,0.00,,,0.00,Wunderground v.1.15,2013-09-12 03:01:00,
2013-09-11 22:06:00,74.0,66.3,30.06,NNW,333,1.0,5.0,77,0.00,,,0.00,Wunderground v.1.15,2013-09-12 03:06:00,
2013-09-11 22:11:00,73.9,66.2,30.06,NNW,333,2.0,3.0,77,0.00,,,0.00,Wunderground v.1.15,2013-09-12 03:11:00,
2013-09-11 22:16:00,73.9,66.6,30.06,NNW,333,2.0,4.0,78,0.00,,,0.00,Wunderground v.1.15,2013-09-12 03:16:00,
2013-09-11 22:21:00,73.9,66.2,30.06,NNW,333,1.0,2.0,77,0.00,,,0.00,Wunderground v.1.15,2013-09-12 03:21:00,
2013-09-11 22:26:00,74.1,66.0,30.05,NNW,327,3.0,4.0,76,0.00,,,0.00,Wunderground v.1.15,2013-09-12 03:26:00,
2013-09-11 22:31:00,74.0,66.3,30.05,NW,325,0.0,2.0,77,0.00,,,0.00,Wunderground v.1.15,2013-09-12 03:31:00,
2013-09-11 22:36:00,73.8,66.5,30.05,NW,325,2.0,3.0,78,0.00,,,0.00,Wunderground v.1.15,2013-09-12 03:36:00,
2013-09-11 22:41:00,73.6,66.3,30.05,NW,325,0.0,0.0,78,0.00,,,0.00,Wunderground v.1.15,2013-09-12 03:41:00,
2013-09-11 22:46:00,73.4,66.1,30.05,NW,325,0.0,0.0,78,0.00,,,0.00,Wunderground v.1.15,2013-09-12 03:46:00,
2013-09-11 22:52:00,73.2,66.3,30.05,NW,325,0.0,0.0,79,0.00,,,0.00,Wunderground v.1.15,2013-09-12 03:52:00,
2013-09-11 22:57:00,73.0,66.1,30.05,NW,325,1.0,1.0,79,0.00,,,0.00,Wunderground v.1.15,2013-09-12 03:57:00,
2013-09-11 23:01:00,72.9,66.0,30.05,NW,325,2.0,3.0,79,0.00,,,0.00,Wunderground v.1.15,2013-09-12 04:01:00,
2013-09-11 23:02:00,72.9,66.0,30.05,NW,325,2.0,3.0,79,0.00,,,0.00,Wunderground v.1.15,2013-09-12 04:02:00,
2013-09-11 23:03:00,73.1,66.2,30.05,NW,325,2.0,3.0,79,0.00,,,0.00,Wunderground v.1.15,2013-09-12 04:03:00,
2013-09-11 23:08:00,73.7,66.4,30.04,WNW,299,2.0,4.0,78,0.00,,,0.00,Wunderground v.1.15,2013-09-12 04:08:00,
2013-09-11 23:14:00,74.3,66.6,30.04,WNW,299,2.0,3.0,77,0.00,,,0.00,Wunderground v.1.15,2013-09-12 04:14:00,
2013-09-11 23:19:00,74.5,66.4,30.04,SW,233,3.0,4.0,76,0.00,,,0.00,Wunderground v.1.15,2013-09-12 04:19:00,
2013-09-11 23:24:00,74.9,66.4,30.04,SW,233,2.0,4.0,75,0.00,,,0.00,Wunderground v.1.15,2013-09-12 04:24:00,
2013-09-11 23:29:00,75.1,65.9,30.04,SW,232,3.0,4.0,73,0.00,,,0.00,Wunderground v.1.15,2013-09-12 04:29:00,
2013-09-11 23:34:00,75.3,66.0,30.04,SW,232,3.0,5.0,73,0.00,,,0.00,Wunderground v.1.15,2013-09-12 04:34:00,
2013-09-11 23:39:00,75.3,66.0,30.03,WSW,240,0.0,5.0,73,0.00,,,0.00,Wunderground v.1.15,2013-09-12 04:39:00,
2013-09-11 23:44:00,75.2,65.9,30.03,SW,235,4.0,4.0,73,0.00,,,0.00,Wunderground v.1.15,2013-09-12 04:44:00,
2013-09-11 23:49:00,75.1,65.9,30.03,SW,235,3.0,5.0,73,0.00,,,0.00,Wunderground v.1.15,2013-09-12 04:49:00,
2013-09-11 23:54:00,75.1,65.9,30.03,SW,235,3.0,3.0,73,0.00,,,0.00,Wunderground v.1.15,2013-09-12 04:54:00,
2013-09-11 23:59:00,75.2,66.3,30.03,SW,235,3.0,4.0,74,0.00,,,0.00,Wunderground v.1.15,2013-09-12 04:59:00,